Time,TemperatureF,DewpointF,PressureIn,WindDirection,WindDirectionDegrees,WindSpeedMPH,WindSpeedGustMPH,Humidity,HourlyPrecipIn,Conditions,Clouds,dailyrainin,SoftwareType,DateUTC
2013-04-08 00:03:00,62.0,43.0,29.96,ESE,123,2.0,4.0,49,0.00,,,0.00,,2013-04-08 04:03:00,
2013-04-08 00:12:00,62.0,43.0,29.96,ESE,123,2.0,4.0,49,0.00,,,0.00,,2013-04-08 04:12:00,
2013-04-08 00:23:00,62.0,43.0,29.96,SE,137,2.0,4.0,49,0.00,,,0.00,,2013-04-08 04:23:00,
2013-04-08 00:33:00,62.0,42.0,29.96,SE,139,1.0,3.0,48,0.00,,,0.00,,2013-04-08 04:33:00,
2013-04-08 00:44:00,62.0,42.0,29.96,SE,139,1.0,3.0,48,0.00,,,0.00,,2013-04-08 04:44:00,
2013-04-08 00:52:00,61.0,43.0,29.96,SE,139,0.0,0.0,51,0.00,,,0.00,,2013-04-08 04:52:00,
2013-04-08 01:02:00,59.0,43.0,29.97,SE,139,0.0,2.0,55,0.00,,,0.00,,2013-04-08 05:02:00,
2013-04-08 01:12:00,59.0,43.0,29.97,SE,139,0.0,2.0,55,0.00,,,0.00,,2013-04-08 05:12:00,
2013-04-08 01:22:00,59.0,43.0,29.97,SE,139,0.0,2.0,55,0.00,,,0.00,,2013-04-08 05:22:00,
2013-04-08 01:32:00,59.0,43.0,29.98,SE,139,0.0,1.0,56,0.00,,,0.00,,2013-04-08 05:32:00,
2013-04-08 01:42:00,59.0,43.0,29.98,SE,139,0.0,1.0,56,0.00,,,0.00,,2013-04-08 05:42:00,
2013-04-08 01:53:00,59.0,43.0,29.98,SE,139,0.0,1.0,56,0.00,,,0.00,,2013-04-08 05:53:00,
2013-04-08 02:02:00,59.0,43.0,29.98,SE,139,0.0,1.0,56,0.00,,,0.00,,2013-04-08 06:02:00,
2013-04-08 02:12:00,59.0,43.0,29.98,SE,139,0.0,2.0,55,0.00,,,0.00,,2013-04-08 06:12:00,
2013-04-08 02:22:00,59.0,43.0,29.98,SE,139,0.0,2.0,55,0.00,,,0.00,,2013-04-08 06:22:00,
2013-04-08 02:32:00,59.0,42.0,29.98,SE,139,1.0,3.0,53,0.00,,,0.00,,2013-04-08 06:32:00,
2013-04-08 02:43:00,59.0,42.0,29.98,SE,139,1.0,3.0,53,0.00,,,0.00,,2013-04-08 06:43:00,
2013-04-08 02:52:00,59.0,41.0,29.98,SE,139,0.0,1.0,52,0.00,,,0.00,,2013-04-08 06:52:00,
2013-04-08 03:02:00,58.0,42.0,29.98,NNE,29,1.0,3.0,55,0.00,,,0.00,,2013-04-08 07:02:00,
2013-04-08 03:12:00,58.0,42.0,29.98,NNE,29,0.0,1.0,55,0.00,,,0.00,,2013-04-08 07:12:00,
2013-04-08 03:22:00,58.0,42.0,29.98,NNE,29,0.0,1.0,55,0.00,,,0.00,,2013-04-08 07:22:00,
2013-04-08 03:33:00,58.0,42.0,29.98,NNE,29,0.0,1.0,55,0.00,,,0.00,,2013-04-08 07:33:00,
2013-04-08 03:42:00,58.0,42.0,29.98,NNE,29,0.0,1.0,55,0.00,,,0.00,,2013-04-08 07:42:00,
2013-04-08 03:52:00,58.0,42.0,29.98,NNE,29,2.0,3.0,56,0.00,,,0.00,,2013-04-08 07:52:00,
2013-04-08 04:02:00,58.0,42.0,29.98,NNE,29,1.0,2.0,56,0.00,,,0.00,,2013-04-08 08:02:00,
2013-04-08 04:12:00,58.0,42.0,29.98,NNE,29,1.0,2.0,56,0.00,,,0.00,,2013-04-08 08:12:00,
2013-04-08 04:22:00,58.0,42.0,29.98,NNE,29,1.0,2.0,56,0.00,,,0.00,,2013-04-08 08:22:00,
2013-04-08 04:33:00,59.0,43.0,29.98,SE,125,3.0,5.0,55,0.00,,,0.00,,2013-04-08 08:33:00,
2013-04-08 04:42:00,59.0,44.0,29.99,SE,140,1.0,3.0,57,0.00,,,0.00,,2013-04-08 08:42:00,
2013-04-08 04:52:00,59.0,44.0,29.99,SE,140,1.0,3.0,57,0.00,,,0.00,,2013-04-08 08:52:00,
2013-04-08 05:03:00,59.0,43.0,29.98,SE,143,2.0,5.0,56,0.00,,,0.00,,2013-04-08 09:03:00,
2013-04-08 05:12:00,59.0,43.0,29.99,SSE,148,1.0,4.0,56,0.00,,,0.00,,2013-04-08 09:12:00,
2013-04-08 05:23:00,59.0,43.0,29.99,SSE,148,1.0,4.0,56,0.00,,,0.00,,2013-04-08 09:23:00,
2013-04-08 05:33:00,58.0,42.0,29.99,SSE,155,2.0,4.0,56,0.00,,,0.00,,2013-04-08 09:33:00,
2013-04-08 05:43:00,58.0,42.0,29.99,SSE,155,2.0,4.0,56,0.00,,,0.00,,2013-04-08 09:43:00,
2013-04-08 05:53:00,58.0,43.0,29.99,SSE,156,0.0,3.0,57,0.00,,,0.00,,2013-04-08 09:53:00,
2013-04-08 06:03:00,57.0,42.0,30.00,SSE,156,1.0,2.0,58,0.00,,,0.00,,2013-04-08 10:03:00,
2013-04-08 06:13:00,57.0,42.0,30.00,SSE,156,1.0,2.0,58,0.00,,,0.00,,2013-04-08 10:13:00,
2013-04-08 06:23:00,57.0,42.0,30.00,SSE,156,0.0,2.0,58,0.00,,,0.00,,2013-04-08 10:23:00,
2013-04-08 06:33:00,57.0,43.0,30.01,SSE,156,0.0,0.0,59,0.00,,,0.00,,2013-04-08 10:33:00,
2013-04-08 06:42:00,57.0,43.0,30.01,SSE,156,0.0,0.0,59,0.00,,,0.00,,2013-04-08 10:42:00,
2013-04-08 06:53:00,55.0,42.0,30.01,SSE,156,0.0,1.0,62,0.00,,,0.00,,2013-04-08 10:53:00,
2013-04-08 07:02:00,54.0,42.0,30.02,SSE,156,0.0,0.0,63,0.00,,,0.00,,2013-04-08 11:02:00,
2013-04-08 07:12:00,54.0,42.0,30.03,SSE,156,0.0,1.0,63,0.00,,,0.00,,2013-04-08 11:12:00,
2013-04-08 07:23:00,54.0,42.0,30.03,SSE,156,0.0,1.0,63,0.00,,,0.00,,2013-04-08 11:23:00,
2013-04-08 07:32:00,54.0,42.0,30.03,SSE,156,0.0,2.0,63,0.00,,,0.00,,2013-04-08 11:32:00,
2013-04-08 07:42:00,54.0,42.0,30.03,SSE,156,0.0,2.0,63,0.00,,,0.00,,2013-04-08 11:42:00,
2013-04-08 07:53:00,55.0,42.0,30.03,SSE,156,0.0,0.0,62,0.00,,,0.00,,2013-04-08 11:53:00,
2013-04-08 08:12:00,54.0,42.0,30.04,SSE,156,0.0,2.0,64,0.00,,,0.00,,2013-04-08 12:12:00,
2013-04-08 08:23:00,56.0,44.0,30.05,SSE,156,0.0,0.0,63,0.00,,,0.00,,2013-04-08 12:23:00,
2013-04-08 08:33:00,57.0,46.0,30.05,SSE,156,0.0,0.0,66,0.00,,,0.00,,2013-04-08 12:33:00,
2013-04-08 08:42:00,57.0,46.0,30.05,SSE,156,0.0,0.0,66,0.00,,,0.00,,2013-04-08 12:42:00,
2013-04-08 08:53:00,60.0,46.0,30.05,SSE,156,1.0,2.0,59,0.00,,,0.00,,2013-04-08 12:53:00,
2013-04-08 09:03:00,62.0,47.0,30.05,SSE,157,0.0,3.0,58,0.00,,,0.00,,2013-04-08 13:03:00,
2013-04-08 09:12:00,62.0,47.0,30.05,SSE,157,0.0,3.0,58,0.00,,,0.00,,2013-04-08 13:12:00,
2013-04-08 09:22:00,63.0,48.0,30.04,SSE,167,1.0,3.0,59,0.00,,,0.00,,2013-04-08 13:22:00,
2013-04-08 09:32:00,64.0,47.0,30.04,SSE,167,0.0,2.0,54,0.00,,,0.00,,2013-04-08 13:32:00,
2013-04-08 09:43:00,64.0,47.0,30.04,SSE,167,0.0,2.0,54,0.00,,,0.00,,2013-04-08 13:43:00,
2013-04-08 09:52:00,64.0,45.0,30.04,SW,217,2.0,5.0,50,0.00,,,0.00,,2013-04-08 13:52:00,
2013-04-08 10:03:00,65.0,46.0,30.04,SSW,194,2.0,6.0,51,0.00,,,0.00,,2013-04-08 14:03:00,
2013-04-08 10:12:00,65.0,46.0,30.04,SSW,213,4.0,7.0,50,0.00,,,0.00,,2013-04-08 14:12:00,
2013-04-08 10:22:00,65.0,46.0,30.04,SSW,213,4.0,7.0,50,0.00,,,0.00,,2013-04-08 14:22:00,
2013-04-08 10:32:00,67.0,47.0,30.04,SSW,202,2.0,5.0,49,0.00,,,0.00,,2013-04-08 14:32:00,
2013-04-08 10:42:00,68.0,48.0,30.04,SSW,213,2.0,5.0,48,0.00,,,0.00,,2013-04-08 14:42:00,
2013-04-08 10:52:00,68.0,48.0,30.04,SSW,213,2.0,5.0,48,0.00,,,0.00,,2013-04-08 14:52:00,
2013-04-08 11:02:00,69.0,48.0,30.04,SSW,208,2.0,5.0,47,0.00,,,0.00,,2013-04-08 15:02:00,
2013-04-08 11:12:00,69.0,48.0,30.04,SSW,192,4.0,6.0,47,0.00,,,0.00,,2013-04-08 15:12:00,
2013-04-08 11:22:00,69.0,48.0,30.04,SSW,192,4.0,6.0,47,0.00,,,0.00,,2013-04-08 15:22:00,
2013-04-08 11:34:00,70.0,48.0,30.04,SW,221,4.0,7.0,46,0.00,,,0.00,,2013-04-08 15:34:00,
2013-04-08 11:43:00,70.0,48.0,30.04,SW,221,4.0,7.0,46,0.00,,,0.00,,2013-04-08 15:43:00,
2013-04-08 11:53:00,70.0,47.0,30.03,SSW,201,5.0,7.0,44,0.00,,,0.00,,2013-04-08 15:53:00,
2013-04-08 12:03:00,71.0,49.0,30.03,SSW,207,5.0,9.0,45,0.00,,,0.00,,2013-04-08 16:03:00,
2013-04-08 12:13:00,73.0,48.0,30.02,WSW,245,2.0,10.0,41,0.00,,,0.00,,2013-04-08 16:13:00,
2013-04-08 12:23:00,73.0,48.0,30.02,WSW,245,2.0,10.0,41,0.00,,,0.00,,2013-04-08 16:23:00,
2013-04-08 12:32:00,73.0,48.0,30.02,WSW,245,2.0,10.0,41,0.00,,,0.00,,2013-04-08 16:32:00,
2013-04-08 12:42:00,73.0,50.0,30.02,SW,221,3.0,9.0,44,0.00,,,0.00,,2013-04-08 16:42:00,
2013-04-08 12:53:00,74.0,48.0,30.01,SW,215,5.0,7.0,40,0.00,,,0.00,,2013-04-08 16:53:00,
2013-04-08 13:03:00,75.0,48.0,30.01,West,268,2.0,8.0,39,0.00,,,0.00,,2013-04-08 17:03:00,
2013-04-08 13:12:00,76.0,49.0,30.00,WSW,244,4.0,8.0,38,0.00,,,0.00,,2013-04-08 17:12:00,
2013-04-08 13:23:00,76.0,49.0,30.00,WSW,244,4.0,8.0,38,0.00,,,0.00,,2013-04-08 17:23:00,
2013-04-08 13:32:00,75.0,49.0,30.00,SW,220,5.0,10.0,40,0.00,,,0.00,,2013-04-08 17:32:00,
2013-04-08 13:43:00,75.0,49.0,30.00,SW,220,5.0,10.0,40,0.00,,,0.00,,2013-04-08 17:43:00,
2013-04-08 13:52:00,75.0,48.0,29.99,SSW,205,4.0,10.0,39,0.00,,,0.00,,2013-04-08 17:52:00,
2013-04-08 14:02:00,76.0,47.0,29.98,SE,130,2.0,5.0,36,0.00,,,0.00,,2013-04-08 18:02:00,
2013-04-08 14:12:00,77.0,48.0,29.97,SSW,203,3.0,7.0,36,0.00,,,0.00,,2013-04-08 18:12:00,
2013-04-08 14:23:00,77.0,48.0,29.97,SSW,203,3.0,7.0,36,0.00,,,0.00,,2013-04-08 18:23:00,
2013-04-08 14:32:00,77.0,49.0,29.97,SSW,202,4.0,15.0,38,0.00,,,0.00,,2013-04-08 18:32:00,
2013-04-08 14:42:00,76.0,48.0,29.96,SSW,209,3.0,10.0,37,0.00,,,0.00,,2013-04-08 18:42:00,
2013-04-08 14:52:00,76.0,48.0,29.96,SSW,209,3.0,10.0,37,0.00,,,0.00,,2013-04-08 18:52:00,
2013-04-08 15:02:00,78.0,47.0,29.96,SSW,199,7.0,11.0,34,0.00,,,0.00,,2013-04-08 19:02:00,
2013-04-08 15:12:00,77.0,48.0,29.95,SSW,192,3.0,6.0,36,0.00,,,0.00,,2013-04-08 19:12:00,
2013-04-08 15:23:00,77.0,48.0,29.95,SSW,192,3.0,6.0,36,0.00,,,0.00,,2013-04-08 19:23:00,
2013-04-08 15:33:00,78.0,46.0,29.94,SW,216,9.0,14.0,32,0.00,,,0.00,,2013-04-08 19:33:00,
2013-04-08 15:42:00,77.0,46.0,29.93,SSW,195,4.0,11.0,33,0.00,,,0.00,,2013-04-08 19:42:00,
2013-04-08 15:52:00,77.0,46.0,29.93,SSW,195,4.0,11.0,33,0.00,,,0.00,,2013-04-08 19:52:00,
2013-04-08 16:02:00,79.0,47.0,29.92,SSW,212,8.0,16.0,32,0.00,,,0.00,,2013-04-08 20:02:00,
2013-04-08 16:12:00,78.0,45.0,29.93,SW,216,3.0,13.0,31,0.00,,,0.00,,2013-04-08 20:12:00,
2013-04-08 16:23:00,78.0,45.0,29.93,SW,216,3.0,13.0,31,0.00,,,0.00,,2013-04-08 20:23:00,
2013-04-08 16:33:00,77.0,46.0,29.92,SSW,204,9.0,15.0,33,0.00,,,0.00,,2013-04-08 20:33:00,
2013-04-08 16:43:00,77.0,46.0,29.92,SSW,204,9.0,15.0,33,0.00,,,0.00,,2013-04-08 20:43:00,
2013-04-08 16:52:00,77.0,46.0,29.92,SW,221,6.0,11.0,33,0.00,,,0.00,,2013-04-08 20:52:00,
2013-04-08 17:02:00,77.0,46.0,29.91,SSW,211,3.0,10.0,34,0.00,,,0.00,,2013-04-08 21:02:00,
2013-04-08 17:12:00,77.0,46.0,29.91,SW,219,7.0,10.0,33,0.00,,,0.00,,2013-04-08 21:12:00,
2013-04-08 17:22:00,77.0,46.0,29.91,SW,219,7.0,10.0,33,0.00,,,0.00,,2013-04-08 21:22:00,
2013-04-08 17:33:00,78.0,45.0,29.91,SSW,213,6.0,14.0,31,0.00,,,0.00,,2013-04-08 21:33:00,
2013-04-08 17:43:00,78.0,45.0,29.91,SSW,213,6.0,14.0,31,0.00,,,0.00,,2013-04-08 21:43:00,
2013-04-08 17:53:00,78.0,45.0,29.91,SSW,198,7.0,13.0,31,0.00,,,0.00,,2013-04-08 21:53:00,
2013-04-08 18:03:00,77.0,44.0,29.90,SW,217,6.0,12.0,31,0.00,,,0.00,,2013-04-08 22:03:00,
2013-04-08 18:13:00,77.0,44.0,29.90,SW,217,6.0,12.0,31,0.00,,,0.00,,2013-04-08 22:13:00,
2013-04-08 18:23:00,77.0,45.0,29.90,SSE,150,3.0,10.0,32,0.00,,,0.00,,2013-04-08 22:23:00,
2013-04-08 18:32:00,77.0,45.0,29.90,SSE,150,3.0,10.0,32,0.00,,,0.00,,2013-04-08 22:32:00,
2013-04-08 18:43:00,77.0,45.0,29.90,SSW,198,6.0,10.0,32,0.00,,,0.00,,2013-04-08 22:43:00,
2013-04-08 18:53:00,76.0,46.0,29.91,SSW,199,1.0,5.0,34,0.00,,,0.00,,2013-04-08 22:53:00,
2013-04-08 19:02:00,76.0,45.0,29.91,SSW,201,2.0,7.0,33,0.00,,,0.00,,2013-04-08 23:02:00,
2013-04-08 19:12:00,76.0,45.0,29.91,SSW,201,2.0,7.0,33,0.00,,,0.00,,2013-04-08 23:12:00,
2013-04-08 19:22:00,76.0,45.0,29.91,SSW,201,2.0,7.0,33,0.00,,,0.00,,2013-04-08 23:22:00,
2013-04-08 19:32:00,76.0,45.0,29.91,South,190,3.0,5.0,33,0.00,,,0.00,,2013-04-08 23:32:00,
2013-04-08 19:43:00,76.0,45.0,29.91,South,190,3.0,5.0,33,0.00,,,0.00,,2013-04-08 23:43:00,
2013-04-08 19:52:00,75.0,45.0,29.91,South,184,1.0,5.0,34,0.00,,,0.00,,2013-04-08 23:52:00,
2013-04-08 20:02:00,75.0,46.0,29.91,South,172,2.0,6.0,36,0.00,,,0.00,,2013-04-09 00:02:00,
2013-04-08 20:12:00,75.0,46.0,29.91,South,172,2.0,6.0,36,0.00,,,0.00,,2013-04-09 00:12:00,
2013-04-08 20:22:00,74.0,46.0,29.91,South,171,1.0,4.0,37,0.00,,,0.00,,2013-04-09 00:22:00,
2013-04-08 20:32:00,74.0,46.0,29.91,South,181,2.0,4.0,37,0.00,,,0.00,,2013-04-09 00:32:00,
2013-04-08 20:42:00,74.0,46.0,29.91,South,181,2.0,4.0,37,0.00,,,0.00,,2013-04-09 00:42:00,
2013-04-08 20:52:00,74.0,45.0,29.91,SSW,192,1.0,5.0,36,0.00,,,0.00,,2013-04-09 00:52:00,
2013-04-08 21:02:00,74.0,45.0,29.91,SSW,196,2.0,7.0,36,0.00,,,0.00,,2013-04-09 01:02:00,
2013-04-08 21:12:00,74.0,45.0,29.92,SSW,194,2.0,6.0,36,0.00,,,0.00,,2013-04-09 01:12:00,
2013-04-08 21:22:00,74.0,45.0,29.92,SSW,194,2.0,6.0,36,0.00,,,0.00,,2013-04-09 01:22:00,
2013-04-08 21:33:00,74.0,45.0,29.91,SSW,192,2.0,5.0,36,0.00,,,0.00,,2013-04-09 01:33:00,
2013-04-08 21:42:00,73.0,45.0,29.92,SSW,203,3.0,7.0,37,0.00,,,0.00,,2013-04-09 01:42:00,
2013-04-08 21:52:00,73.0,45.0,29.92,SSW,203,3.0,7.0,37,0.00,,,0.00,,2013-04-09 01:52:00,
2013-04-08 22:02:00,73.0,45.0,29.92,SSW,202,5.0,7.0,37,0.00,,,0.00,,2013-04-09 02:02:00,
2013-04-08 22:13:00,73.0,45.0,29.92,SSW,202,5.0,7.0,37,0.00,,,0.00,,2013-04-09 02:13:00,
2013-04-08 22:22:00,73.0,46.0,29.92,SSW,199,4.0,7.0,38,0.00,,,0.00,,2013-04-09 02:22:00,
2013-04-08 22:33:00,73.0,46.0,29.92,SSW,197,4.0,7.0,38,0.00,,,0.00,,2013-04-09 02:33:00,
2013-04-08 22:43:00,73.0,46.0,29.92,SSW,192,4.0,7.0,38,0.00,,,0.00,,2013-04-09 02:43:00,
2013-04-08 22:52:00,73.0,46.0,29.92,SSW,192,4.0,7.0,38,0.00,,,0.00,,2013-04-09 02:52:00,
2013-04-08 23:02:00,72.0,46.0,29.92,SSW,196,4.0,8.0,39,0.00,,,0.00,,2013-04-09 03:02:00,
2013-04-08 23:12:00,72.0,46.0,29.92,SSW,196,4.0,8.0,39,0.00,,,0.00,,2013-04-09 03:12:00,
2013-04-08 23:22:00,72.0,46.0,29.92,SSW,193,3.0,7.0,40,0.00,,,0.00,,2013-04-09 03:22:00,
2013-04-08 23:33:00,71.0,46.0,29.92,SSW,192,3.0,8.0,41,0.00,,,0.00,,2013-04-09 03:33:00,
2013-04-08 23:43:00,71.0,46.0,29.92,SSW,192,3.0,8.0,41,0.00,,,0.00,,2013-04-09 03:43:00,
2013-04-08 23:53:00,71.0,46.0,29.92,SSW,201,4.0,8.0,41,0.00,,,0.00,,2013-04-09 03:53:00,